La Paz, Mexico

6:11 PM MDT on June 26, 2017 (GMT -0600)
Gen Manuel Marquez De Leon

Weather History for MMLP - July, 2013

Change the Weather History Date:

Monday, July 22, 2013

  Actual Average Record
Temperature  
Mean Temperature 86 °F -  
Max Temperature 99 °F 96 °F 105 °F (2016)
Min Temperature 72 °F 74 °F 69 °F (2010)
Cooling Degree Days 20    
Growing Degree Days 36 (Base 50)    
Moisture  
Dew Point 62 °F    
Average Humidity 46    
Maximum Humidity 78    
Minimum Humidity 26    
Precipitation  
Precipitation 0.00 in - - ()
Sea Level Pressure  
Sea Level Pressure 29.93 in    
Wind  
Wind Speed 6 mph ()    
Max Wind Speed 14 mph    
Max Gust Speed -    
Visibility 9.8 miles    
Events      
Averages and records for this station are not official NWS values.
T = Trace of Precipitation, MM = Missing Value Source: Averaged Metar Reports

Daily Weather History Graph

Daily Weather History Graph

Search for Another Location

Airport or City:

Trip Planner

Search our weather history database for the weather conditions in past years. The results will help you decide how hot, cold, wet, or windy it might be!

Date:

Astronomy

Jul. 22, 2013 Rise Set
Actual Time 6:46 AM MDT 8:09 PM MDT
Civil Twilight 6:21 AM MDT 8:34 PM MDT
Nautical Twilight 5:51 AM MDT 9:03 PM MDT
Astronomical Twilight 5:21 AM MDT 9:34 PM MDT
Moon 8:08 PM MDT (7/22) 6:39 AM MDT (7/22)
Length of Visible Light 14h 12m
Length of Day
13h 23m
Full, 100% of the Moon is Illuminated
Jul 22
Full
Jul 22
Full
Jul 29
Last Quarter
Aug 6
New
Aug 14
First Quarter

Hourly Weather History & Observations

Time (MDT) Temp. Heat Index Dew Point Humidity Pressure Visibility Wind Dir Wind Speed Gust Speed Precip Events Conditions
2:50 AM 75 °F - 67 °F 69% 29.92 in 2 mi South 4.5 mph - -  
5:40 AM 73 °F - 65 °F 70% 29.96 in 2 mi South 4.5 mph - -  
5:57 AM 71.6 °F - 62.6 °F 73% 29.99 in 10.0 mi SSE 4.6 mph - N/A   Clear
6:44 AM 71.6 °F - 62.6 °F 73% 29.95 in 10.0 mi South 6.9 mph - N/A   Clear
7:43 AM 71.6 °F - 64.4 °F 78% 29.96 in 10.0 mi South 6.9 mph - N/A   Clear
8:47 AM 75.2 °F - 62.6 °F 65% 30.01 in 10.0 mi South 6.9 mph - N/A   Clear
9:45 AM 82.4 °F 82.9 °F 60.8 °F 48% 29.95 in 10.0 mi SSW 4.6 mph - N/A   Clear
10:44 AM 87.8 °F 88.5 °F 62.6 °F 43% 29.93 in 10.0 mi South 9.2 mph - N/A   Clear
11:41 AM 89.6 °F 88.9 °F 59.0 °F 36% 29.97 in 10.0 mi South 9.2 mph - N/A   Clear
11:50 AM 94 °F - 66 °F 30% 29.92 in 19 mi NNW 4.5 mph - -  
12:53 PM 93.2 °F 91.9 °F 57.2 °F 30% 29.90 in 10.0 mi West 4.6 mph - N/A   Clear
1:40 PM 95.0 °F 93.7 °F 57.2 °F 28% 29.89 in 10.0 mi SSW 9.2 mph - N/A   Clear
2:40 PM 93.2 °F 93.3 °F 60.8 °F 34% 29.99 in 10.0 mi North 11.5 mph - N/A   Partly Cloudy
2:50 PM 99 °F - 67 °F 26% 29.88 in 19 mi NNW 11.2 mph - -   Scattered Clouds
3:46 PM 95.0 °F 95.2 °F 60.8 °F 32% 29.85 in 10.0 mi NW 11.5 mph - N/A   Scattered Clouds
4:40 PM 93.2 °F 94.9 °F 64.4 °F 38% 29.86 in 10.0 mi NW 9.2 mph - N/A   Scattered Clouds
5:40 PM 93.2 °F 92.6 °F 59.0 °F 32% 29.98 in 10.0 mi SW 13.8 mph - N/A   Scattered Clouds
5:50 PM 96 °F - 71 °F 35% 29.86 in 19 mi West 6.7 mph - -   Scattered Clouds
6:43 PM 91.4 °F 91.4 °F 60.8 °F 36% 29.86 in 10.0 mi SSW 9.2 mph - N/A   Clear
7:46 PM 87.8 °F 87.6 °F 60.8 °F 40% 29.88 in 10.0 mi SW 11.5 mph - N/A   Clear
8:48 PM 84.2 °F 83.8 °F 59.0 °F 42% 30.03 in 10.0 mi SW 11.5 mph - N/A   Clear
8:50 PM 84 °F - 65 °F 43% 29.93 in 2 mi South 4.5 mph - -  
9:48 PM 80.6 °F 80.8 °F 57.2 °F 45% 29.95 in 10.0 mi SSW 6.9 mph - N/A   Clear
10:43 PM 78.8 °F - 57.2 °F 47% 29.97 in 10.0 mi SSW 6.9 mph - N/A   Clear
11:50 PM 80 °F - 63 °F 46% 29.97 in 2 mi South 6.7 mph - -